TimeCST,TemperatureF,Dew PointF,Humidity,Sea Level PressureIn,VisibilityMPH,Wind Direction,Wind SpeedMPH,Gust SpeedMPH,PrecipitationIn,Events,Conditions,WindDirDegrees,DateUTC
12:00 AM,66,65,95,29.85,12,ESE,3.5,,,,Overcast,110,2013-09-12 06:00:00
12:00 AM,66.2,66.2,100,30.00,6.2,ESE,3.5,-,N/A,,Mostly Cloudy,110,2013-09-12 06:00:00
1:00 AM,66.2,64.4,94,29.98,6.2,WSW,3.5,-,N/A,,Mostly Cloudy,250,2013-09-12 07:00:00
2:00 AM,66.2,66.2,100,29.97,1.2,SW,3.5,-,N/A,,Mostly Cloudy,230,2013-09-12 08:00:00
3:00 AM,66,65,97,29.85,1,WSW,2.3,,,,Overcast,250,2013-09-12 09:00:00
3:00 AM,66.2,66.2,100,29.96,1.2,WSW,2.3,-,N/A,,Mostly Cloudy,250,2013-09-12 09:00:00
4:00 AM,66.2,46.4,49,29.97,6.2,North,3.5,-,N/A,Fog,Mostly Cloudy,10,2013-09-12 10:00:00
5:00 AM,66.2,64.4,94,29.97,-9999.0,East,4.6,-,N/A,,Clear,80,2013-09-12 11:00:00
6:00 AM,68,65,87,29.88,12,ENE,2.3,,,,Mostly Cloudy,60,2013-09-12 12:00:00
6:00 AM,68.0,64.4,88,30.01,-9999.0,ENE,2.3,-,N/A,,Clear,60,2013-09-12 12:00:00
7:00 AM,69.8,64.4,83,30.04,-9999.0,Calm,Calm,-,N/A,,Clear,0,2013-09-12 13:00:00
8:00 AM,73.4,66.2,78,30.03,6.2,SSE,2.3,-,N/A,,Scattered Clouds,150,2013-09-12 14:00:00
9:00 AM,77,65,59,29.90,12,SW,2.3,,,,Scattered Clouds,220,2013-09-12 15:00:00
9:00 AM,77.0,66.2,69,30.03,6.2,SW,2.3,-,N/A,,Scattered Clouds,220,2013-09-12 15:00:00
10:00 AM,80.6,62.6,54,30.02,6.2,WSW,3.5,-,N/A,,Scattered Clouds,240,2013-09-12 16:00:00
11:00 AM,80.6,62.6,54,30.00,6.2,WSW,8.1,-,N/A,,Scattered Clouds,240,2013-09-12 17:00:00
12:00 PM,,,,,12,WSW,10.4,,,,,240,2013-09-12 18:00:00
12:00 PM,78.8,66.2,65,29.98,6.2,WSW,10.4,-,N/A,,Mostly Cloudy,240,2013-09-12 18:00:00
1:00 PM,78.8,64.4,61,29.96,6.2,West,11.5,-,N/A,,Scattered Clouds,270,2013-09-12 19:00:00
2:00 PM,73.4,68.0,83,29.94,6.2,WSW,9.2,-,N/A,,Mostly Cloudy,250,2013-09-12 20:00:00
3:00 PM,73,68,80,29.78,6,WSW,8.1,,,,Overcast,240,2013-09-12 21:00:00
3:00 PM,73.4,68.0,83,29.92,6.2,WSW,8.1,-,N/A,,Scattered Clouds,240,2013-09-12 21:00:00
4:00 PM,71.6,66.2,83,29.93,6.2,WSW,8.1,-,N/A,,Mostly Cloudy,250,2013-09-12 22:00:00
5:00 PM,71.6,64.4,78,29.95,6.2,West,5.8,-,N/A,,Mostly Cloudy,270,2013-09-12 23:00:00
6:00 PM,70,66,83,29.82,9,WSW,4.6,,,,Overcast,250,2013-09-13 00:00:00
6:00 PM,69.8,66.2,88,29.96,6.2,WSW,4.6,-,N/A,,Mostly Cloudy,250,2013-09-13 00:00:00
7:00 PM,69.8,64.4,83,29.97,6.2,East,2.3,-,N/A,Rain,Light Rain,100,2013-09-13 01:00:00
8:00 PM,69.8,64.4,83,29.98,6.2,Calm,Calm,-,N/A,Rain,Light Rain,0,2013-09-13 02:00:00
9:00 PM,69,67,92,29.83,6,NNW,3.5,,,Rain,Light Rain,330,2013-09-13 03:00:00
9:00 PM,69.8,68.0,94,30.00,6.2,NNW,3.5,-,N/A,Rain,Light Rain,330,2013-09-13 03:00:00
10:00 PM,68.0,66.2,94,30.00,-9999.0,Calm,Calm,-,N/A,,Clear,0,2013-09-13 04:00:00
11:00 PM,68.0,68.0,100,30.00,-9999.0,WNW,2.3,-,N/A,,Clear,300,2013-09-13 05:00:00